date,time,SUV Intensity [MED/Hr],UV Index,Daily total [MED],Since Last [MED]
05/04/2022,00:06:33,0.000,0.0,0.0,0.0
05/04/2022,00:07:33,-0.001,0.0,0.0,0.0
05/04/2022,00:08:33,0.001,0.0,0.0,0.0
05/04/2022,00:09:32,-0.001,0.0,0.0,0.0
05/04/2022,00:10:33,0.001,0.0,0.0,0.0
05/04/2022,00:11:33,0.000,0.0,0.0,0.0
05/04/2022,00:12:33,0.000,0.0,0.0,0.0
05/04/2022,00:13:41,0.001,0.0,0.0,0.0
05/04/2022,00:15:33,-0.001,0.0,0.0,0.0
05/04/2022,00:16:33,0.000,0.0,0.0,0.0
05/04/2022,00:17:33,-0.000,0.0,0.0,0.0
05/04/2022,00:18:32,0.000,0.0,0.0,0.0
05/04/2022,00:19:33,0.001,0.0,0.0,0.0
05/04/2022,00:20:33,0.000,0.0,0.0,0.0
05/04/2022,00:21:32,0.000,0.0,0.0,0.0
05/04/2022,00:22:32,0.000,0.0,0.0,0.0
05/04/2022,00:23:41,0.000,0.0,0.0,0.0
05/04/2022,00:25:33,-0.000,0.0,0.0,0.0
05/04/2022,00:26:33,0.000,0.0,0.0,0.0
05/04/2022,00:27:33,-0.001,0.0,0.0,0.0
05/04/2022,00:28:33,0.000,0.0,0.0,0.0
05/04/2022,00:29:33,0.000,0.0,0.0,0.0
05/04/2022,00:30:33,-0.000,0.0,0.0,0.0
05/04/2022,00:31:33,-0.000,0.0,0.0,0.0
05/04/2022,00:32:33,-0.001,0.0,0.0,0.0
05/04/2022,00:33:33,0.000,0.0,0.0,0.0
05/04/2022,00:34:32,0.000,0.0,0.0,0.0
05/04/2022,00:35:32,0.001,0.0,0.0,0.0
05/04/2022,00:36:33,-0.001,0.0,0.0,0.0
05/04/2022,00:37:32,0.000,0.0,0.0,0.0
05/04/2022,00:38:33,0.000,0.0,0.0,0.0
05/04/2022,00:39:34,-0.001,0.0,0.0,0.0
05/04/2022,00:40:32,-0.000,0.0,0.0,0.0
05/04/2022,00:41:32,0.000,0.0,0.0,0.0
05/04/2022,00:42:33,-0.001,0.0,0.0,0.0
05/04/2022,00:43:33,0.000,0.0,0.0,0.0
05/04/2022,00:44:33,0.001,0.0,0.0,0.0
05/04/2022,00:45:32,0.000,0.0,0.0,0.0
05/04/2022,00:46:33,0.000,0.0,0.0,0.0
05/04/2022,00:47:41,0.001,0.0,0.0,0.0
05/04/2022,00:48:32,0.000,0.0,0.0,0.0
05/04/2022,00:49:33,-0.000,0.0,0.0,0.0
05/04/2022,00:50:32,0.000,0.0,0.0,0.0
05/04/2022,00:51:33,0.001,0.0,0.0,0.0
05/04/2022,00:52:33,0.001,0.0,0.0,0.0
05/04/2022,00:53:32,0.001,0.0,0.0,0.0
05/04/2022,00:54:33,0.001,0.0,0.0,0.0
05/04/2022,00:55:33,0.001,0.0,0.0,0.0
05/04/2022,00:56:32,-0.001,0.0,0.0,0.0
05/04/2022,00:57:33,0.001,0.0,0.0,0.0
05/04/2022,00:58:41,-0.001,0.0,0.0,0.0
05/04/2022,00:59:32,0.000,0.0,0.0,0.0
05/04/2022,01:00:32,0.000,0.0,0.0,0.0
05/04/2022,01:01:33,0.000,0.0,0.0,0.0
05/04/2022,01:02:32,0.000,0.0,0.0,0.0
05/04/2022,01:03:33,0.001,0.0,0.0,0.0
05/04/2022,01:04:33,0.000,0.0,0.0,0.0
05/04/2022,01:05:33,0.000,0.0,0.0,0.0
05/04/2022,01:06:33,0.001,0.0,0.0,0.0
05/04/2022,01:07:32,0.000,0.0,0.0,0.0
05/04/2022,01:08:41,0.000,0.0,0.0,0.0
05/04/2022,01:09:33,0.000,0.0,0.0,0.0
05/04/2022,01:10:33,0.000,0.0,0.0,0.0
05/04/2022,01:11:41,0.000,0.0,0.0,0.0
05/04/2022,01:13:33,0.001,0.0,0.0,0.0
05/04/2022,01:14:33,0.000,0.0,0.0,0.0
05/04/2022,01:15:33,0.000,0.0,0.0,0.0
05/04/2022,01:16:33,0.001,0.0,0.0,0.0
05/04/2022,01:17:33,0.001,0.0,0.0,0.0
05/04/2022,01:18:33,0.000,0.0,0.0,0.0
05/04/2022,01:19:33,0.000,0.0,0.0,0.0
05/04/2022,01:20:33,-0.001,0.0,0.0,0.0
05/04/2022,01:21:33,0.001,0.0,0.0,0.0
05/04/2022,01:22:41,0.000,0.0,0.0,0.0
05/04/2022,01:24:34,0.001,0.0,0.0,0.0
05/04/2022,01:25:33,0.000,0.0,0.0,0.0
05/04/2022,01:26:33,0.000,0.0,0.0,0.0
05/04/2022,01:27:33,0.001,0.0,0.0,0.0
05/04/2022,01:28:33,0.000,0.0,0.0,0.0
05/04/2022,01:29:33,-0.000,0.0,0.0,0.0
05/04/2022,01:30:33,0.000,0.0,0.0,0.0
05/04/2022,01:31:32,0.000,0.0,0.0,0.0
05/04/2022,01:32:41,0.000,0.0,0.0,0.0
05/04/2022,01:33:33,0.001,0.0,0.0,0.0
05/04/2022,01:34:33,0.000,0.0,0.0,0.0
05/04/2022,01:35:32,0.000,0.0,0.0,0.0
05/04/2022,01:36:32,0.000,0.0,0.0,0.0
05/04/2022,01:37:33,0.000,0.0,0.0,0.0
05/04/2022,01:38:33,-0.001,0.0,0.0,0.0
05/04/2022,01:39:32,0.001,0.0,0.0,0.0
05/04/2022,01:40:33,0.000,0.0,0.0,0.0
05/04/2022,01:41:32,-0.001,0.0,0.0,0.0
05/04/2022,01:42:41,-0.000,0.0,0.0,0.0
05/04/2022,01:44:33,0.000,0.0,0.0,0.0
05/04/2022,01:45:32,0.000,0.0,0.0,0.0
05/04/2022,01:46:33,0.001,0.0,0.0,0.0
05/04/2022,01:47:33,0.000,0.0,0.0,0.0
05/04/2022,01:48:33,0.000,0.0,0.0,0.0
05/04/2022,01:49:33,0.000,0.0,0.0,0.0
05/04/2022,01:50:33,-0.000,0.0,0.0,0.0
05/04/2022,01:51:32,-0.001,0.0,0.0,0.0
05/04/2022,01:52:33,0.000,0.0,0.0,0.0
05/04/2022,01:53:41,0.000,0.0,0.0,0.0
05/04/2022,01:54:32,-0.001,0.0,0.0,0.0
05/04/2022,01:55:33,0.000,0.0,0.0,0.0
05/04/2022,01:56:41,-0.001,0.0,0.0,0.0
05/04/2022,01:57:32,0.000,0.0,0.0,0.0
05/04/2022,01:58:33,0.000,0.0,0.0,0.0
05/04/2022,01:59:33,-0.000,0.0,0.0,0.0
05/04/2022,02:00:33,-0.001,0.0,0.0,0.0
05/04/2022,02:01:33,0.000,0.0,0.0,0.0
05/04/2022,02:02:33,-0.000,0.0,0.0,0.0
05/04/2022,02:03:33,0.000,0.0,0.0,0.0
05/04/2022,02:04:33,0.000,0.0,0.0,0.0
05/04/2022,02:05:33,0.000,0.0,0.0,0.0
05/04/2022,02:06:35,0.001,0.0,0.0,0.0
05/04/2022,02:07:33,0.001,0.0,0.0,0.0
05/04/2022,02:08:33,0.000,0.0,0.0,0.0
05/04/2022,02:09:33,0.001,0.0,0.0,0.0
05/04/2022,02:10:33,0.001,0.0,0.0,0.0
05/04/2022,02:11:33,0.001,0.0,0.0,0.0
05/04/2022,02:12:33,0.001,0.0,0.0,0.0
05/04/2022,02:13:33,0.001,0.0,0.0,0.0
05/04/2022,02:14:41,0.000,0.0,0.0,0.0
05/04/2022,02:16:34,0.000,0.0,0.0,0.0
05/04/2022,02:17:32,0.000,0.0,0.0,0.0
05/04/2022,02:18:33,0.000,0.0,0.0,0.0
05/04/2022,02:19:33,0.001,0.0,0.0,0.0
05/04/2022,02:20:33,0.000,0.0,0.0,0.0
05/04/2022,02:21:33,0.001,0.0,0.0,0.0
05/04/2022,02:22:33,0.000,0.0,0.0,0.0
05/04/2022,02:23:33,0.000,0.0,0.0,0.0
05/04/2022,02:24:34,0.000,0.0,0.0,0.0
05/04/2022,02:25:33,0.001,0.0,0.0,0.0
05/04/2022,02:26:33,0.000,0.0,0.0,0.0
05/04/2022,02:27:41,0.001,0.0,0.0,0.0
05/04/2022,02:28:32,0.000,0.0,0.0,0.0
05/04/2022,02:29:33,0.000,0.0,0.0,0.0
05/04/2022,02:30:33,0.000,0.0,0.0,0.0
05/04/2022,02:31:33,0.000,0.0,0.0,0.0
05/04/2022,02:32:33,0.000,0.0,0.0,0.0
05/04/2022,02:33:33,0.001,0.0,0.0,0.0
05/04/2022,02:34:32,0.000,0.0,0.0,0.0
05/04/2022,02:35:42,0.000,0.0,0.0,0.0
05/04/2022,02:36:33,0.000,0.0,0.0,0.0
05/04/2022,02:37:33,0.000,0.0,0.0,0.0
05/04/2022,02:38:33,-0.001,0.0,0.0,0.0
05/04/2022,02:39:33,0.000,0.0,0.0,0.0
05/04/2022,02:40:33,-0.001,0.0,0.0,0.0
05/04/2022,02:41:33,-0.000,0.0,0.0,0.0
05/04/2022,02:42:32,0.000,0.0,0.0,0.0
05/04/2022,02:43:33,0.000,0.0,0.0,0.0
05/04/2022,02:44:33,0.001,0.0,0.0,0.0
05/04/2022,02:45:41,0.001,0.0,0.0,0.0
05/04/2022,02:47:34,0.001,0.0,0.0,0.0
05/04/2022,02:48:34,0.001,0.0,0.0,0.0
05/04/2022,02:49:33,0.000,0.0,0.0,0.0
05/04/2022,02:50:32,0.000,0.0,0.0,0.0
05/04/2022,02:51:33,0.001,0.0,0.0,0.0
05/04/2022,02:52:33,0.000,0.0,0.0,0.0
05/04/2022,02:53:24,0.000,0.0,0.0,0.0
05/04/2022,02:54:33,0.000,0.0,0.0,0.0
05/04/2022,02:55:41,0.001,0.0,0.0,0.0
05/04/2022,02:57:32,-0.001,0.0,0.0,0.0
05/04/2022,02:58:41,0.001,0.0,0.0,0.0
05/04/2022,02:59:33,-0.000,0.0,0.0,0.0
05/04/2022,03:00:33,0.001,0.0,0.0,0.0
05/04/2022,03:01:33,-0.000,0.0,0.0,0.0
05/04/2022,03:02:33,0.001,0.0,0.0,0.0
05/04/2022,03:03:33,0.000,0.0,0.0,0.0
05/04/2022,03:04:33,0.000,0.0,0.0,0.0
05/04/2022,03:05:33,0.001,0.0,0.0,0.0
05/04/2022,03:06:41,0.001,0.0,0.0,0.0
05/04/2022,03:07:33,0.000,0.0,0.0,0.0
05/04/2022,03:08:34,-0.001,0.0,0.0,0.0
05/04/2022,03:09:32,0.000,0.0,0.0,0.0
05/04/2022,03:10:33,0.000,0.0,0.0,0.0
05/04/2022,03:11:33,0.001,0.0,0.0,0.0
05/04/2022,03:12:33,0.001,0.0,0.0,0.0
05/04/2022,03:13:33,0.001,0.0,0.0,0.0
05/04/2022,03:14:33,0.001,0.0,0.0,0.0
05/04/2022,03:15:33,0.001,0.0,0.0,0.0
05/04/2022,03:16:42,0.001,0.0,0.0,0.0
05/04/2022,03:18:34,0.001,0.0,0.0,0.0
05/04/2022,03:19:33,0.000,0.0,0.0,0.0
05/04/2022,03:20:33,-0.001,0.0,0.0,0.0
05/04/2022,03:21:33,0.000,0.0,0.0,0.0
05/04/2022,03:22:33,-0.001,0.0,0.0,0.0
05/04/2022,03:23:33,0.001,0.0,0.0,0.0
05/04/2022,03:24:33,0.002,0.0,0.0,0.0
05/04/2022,03:25:33,0.001,0.0,0.0,0.0
05/04/2022,03:26:33,0.002,0.0,0.0,0.0
05/04/2022,03:27:33,0.000,0.0,0.0,0.0
05/04/2022,03:28:34,0.002,0.0,0.0,0.0
05/04/2022,03:29:33,-0.000,0.0,0.0,0.0
05/04/2022,03:30:33,0.001,0.0,0.0,0.0
05/04/2022,03:31:33,0.001,0.0,0.0,0.0
05/04/2022,03:32:33,0.001,0.0,0.0,0.0
05/04/2022,03:33:33,0.000,0.0,0.0,0.0
05/04/2022,03:34:33,0.000,0.0,0.0,0.0
05/04/2022,03:35:35,0.001,0.0,0.0,0.0
05/04/2022,03:36:33,-0.000,0.0,0.0,0.0
05/04/2022,03:37:41,0.001,0.0,0.0,0.0
05/04/2022,03:38:23,0.001,0.0,0.0,0.0
05/04/2022,03:39:33,0.001,0.0,0.0,0.0
05/04/2022,03:40:33,0.001,0.0,0.0,0.0
05/04/2022,03:41:34,0.000,0.0,0.0,0.0
05/04/2022,03:42:33,0.000,0.0,0.0,0.0
05/04/2022,03:43:33,0.000,0.0,0.0,0.0
05/04/2022,03:44:33,0.001,0.0,0.0,0.0
05/04/2022,03:45:33,0.000,0.0,0.0,0.0
05/04/2022,03:46:33,0.001,0.0,0.0,0.0
05/04/2022,03:47:33,0.001,0.0,0.0,0.0
05/04/2022,03:48:33,-0.000,0.0,0.0,0.0
05/04/2022,03:49:33,-0.000,0.0,0.0,0.0
05/04/2022,03:50:33,0.001,0.0,0.0,0.0
05/04/2022,03:51:33,0.000,0.0,0.0,0.0
05/04/2022,03:52:33,0.000,0.0,0.0,0.0
05/04/2022,03:53:33,0.001,0.0,0.0,0.0
05/04/2022,03:54:33,0.001,0.0,0.0,0.0
05/04/2022,03:55:33,0.001,0.0,0.0,0.0
05/04/2022,03:56:33,0.000,0.0,0.0,0.0
05/04/2022,03:57:33,0.000,0.0,0.0,0.0
05/04/2022,03:58:33,0.001,0.0,0.0,0.0
05/04/2022,03:59:33,0.000,0.0,0.0,0.0
05/04/2022,04:00:34,0.001,0.0,0.0,0.0
05/04/2022,04:01:33,0.001,0.0,0.0,0.0
05/04/2022,04:02:41,0.000,0.0,0.0,0.0
05/04/2022,04:03:32,0.001,0.0,0.0,0.0
05/04/2022,04:04:50,0.000,0.0,0.0,0.0
05/04/2022,04:06:33,0.000,0.0,0.0,0.0
05/04/2022,04:07:33,0.000,0.0,0.0,0.0
05/04/2022,04:08:33,0.000,0.0,0.0,0.0
05/04/2022,04:09:33,0.000,0.0,0.0,0.0
05/04/2022,04:10:33,-0.000,0.0,0.0,0.0
05/04/2022,04:11:33,0.001,0.0,0.0,0.0
05/04/2022,04:12:33,0.000,0.0,0.0,0.0
05/04/2022,04:13:33,-0.001,0.0,0.0,0.0
05/04/2022,04:14:34,-0.001,0.0,0.0,0.0
05/04/2022,04:15:33,-0.000,0.0,0.0,0.0
05/04/2022,04:16:33,0.001,0.0,0.0,0.0
05/04/2022,04:17:33,0.000,0.0,0.0,0.0
05/04/2022,04:18:42,0.001,0.0,0.0,0.0
05/04/2022,04:19:41,0.000,0.0,0.0,0.0
05/04/2022,04:20:33,0.001,0.0,0.0,0.0
05/04/2022,04:21:33,0.000,0.0,0.0,0.0
05/04/2022,04:22:33,0.000,0.0,0.0,0.0
05/04/2022,04:23:42,0.000,0.0,0.0,0.0
05/04/2022,04:24:33,0.000,0.0,0.0,0.0
05/04/2022,04:25:33,0.000,0.0,0.0,0.0
05/04/2022,04:26:42,0.000,0.0,0.0,0.0
05/04/2022,04:27:33,0.001,0.0,0.0,0.0
05/04/2022,04:28:33,0.001,0.0,0.0,0.0
05/04/2022,04:29:35,-0.000,0.0,0.0,0.0
05/04/2022,04:30:33,0.000,0.0,0.0,0.0
05/04/2022,04:31:34,0.001,0.0,0.0,0.0
05/04/2022,04:32:33,0.000,0.0,0.0,0.0
05/04/2022,04:33:41,0.001,0.0,0.0,0.0
05/04/2022,04:34:33,-0.001,0.0,0.0,0.0
05/04/2022,04:35:33,0.000,0.0,0.0,0.0
05/04/2022,04:36:33,0.000,0.0,0.0,0.0
05/04/2022,04:37:33,0.000,0.0,0.0,0.0
05/04/2022,04:38:33,0.001,0.0,0.0,0.0
05/04/2022,04:39:33,0.001,0.0,0.0,0.0
05/04/2022,04:40:33,0.000,0.0,0.0,0.0
05/04/2022,04:41:34,0.001,0.0,0.0,0.0
05/04/2022,04:42:33,0.000,0.0,0.0,0.0
05/04/2022,04:43:33,-0.001,0.0,0.0,0.0
05/04/2022,04:44:41,0.000,0.0,0.0,0.0
05/04/2022,04:45:33,0.001,0.0,0.0,0.0
05/04/2022,04:46:33,0.001,0.0,0.0,0.0
05/04/2022,04:47:34,0.000,0.0,0.0,0.0
05/04/2022,04:48:33,0.001,0.0,0.0,0.0
05/04/2022,04:49:34,0.001,0.0,0.0,0.0
05/04/2022,04:50:33,0.000,0.0,0.0,0.0
05/04/2022,04:51:33,-0.000,0.0,0.0,0.0
05/04/2022,04:52:33,0.000,0.0,0.0,0.0
05/04/2022,04:53:34,-0.000,0.0,0.0,0.0
05/04/2022,04:54:41,0.001,0.0,0.0,0.0
05/04/2022,04:56:33,0.001,0.0,0.0,0.0
05/04/2022,04:57:33,0.001,0.0,0.0,0.0
05/04/2022,04:58:33,0.001,0.0,0.0,0.0
05/04/2022,04:59:33,-0.000,0.0,0.0,0.0
05/04/2022,05:00:33,0.000,0.0,0.0,0.0
05/04/2022,05:01:33,0.000,0.0,0.0,0.0
05/04/2022,05:02:33,0.000,0.0,0.0,0.0
05/04/2022,05:03:33,0.000,0.0,0.0,0.0
05/04/2022,05:04:33,0.000,0.0,0.0,0.0
05/04/2022,05:05:33,0.001,0.0,0.0,0.0
05/04/2022,05:06:33,-0.000,0.0,0.0,0.0
05/04/2022,05:07:33,0.000,0.0,0.0,0.0
05/04/2022,05:08:33,0.001,0.0,0.0,0.0
05/04/2022,05:09:33,0.002,0.0,0.0,0.0
05/04/2022,05:10:33,0.001,0.0,0.0,0.0
05/04/2022,05:11:33,0.001,0.0,0.0,0.0
05/04/2022,05:12:42,-0.000,0.0,0.0,0.0
05/04/2022,05:14:33,0.001,0.0,0.0,0.0
05/04/2022,05:15:33,0.001,0.0,0.0,0.0
05/04/2022,05:16:33,0.001,0.0,0.0,0.0
05/04/2022,05:17:33,-0.000,0.0,0.0,0.0
05/04/2022,05:18:34,0.001,0.0,0.0,0.0
05/04/2022,05:19:33,0.001,0.0,0.0,0.0
05/04/2022,05:20:42,0.001,0.0,0.0,0.0
05/04/2022,05:22:34,0.001,0.0,0.0,0.0
05/04/2022,05:23:34,-0.000,0.0,0.0,0.0
05/04/2022,05:24:33,0.001,0.0,0.0,0.0
05/04/2022,05:25:34,0.002,0.0,0.0,0.0
05/04/2022,05:26:33,0.002,0.0,0.0,0.0
05/04/2022,05:27:34,0.001,0.0,0.0,0.0
05/04/2022,05:28:33,0.001,0.0,0.0,0.0
05/04/2022,05:29:33,0.002,0.0,0.0,0.0
05/04/2022,05:30:33,0.002,0.0,0.0,0.0
05/04/2022,05:31:33,0.001,0.0,0.0,0.0
05/04/2022,05:32:33,0.002,0.0,0.0,0.0
05/04/2022,05:33:33,0.001,0.0,0.0,0.0
05/04/2022,05:34:33,0.001,0.0,0.0,0.0
05/04/2022,05:35:33,0.001,0.0,0.0,0.0
05/04/2022,05:36:33,0.001,0.0,0.0,0.0
05/04/2022,05:37:33,0.002,0.0,0.0,0.0
05/04/2022,05:38:33,0.002,0.0,0.0,0.0
05/04/2022,05:39:34,0.002,0.0,0.0,0.0
05/04/2022,05:40:41,0.001,0.0,0.0,0.0
05/04/2022,05:41:32,0.002,0.0,0.0,0.0
05/04/2022,05:42:34,0.002,0.0,0.0,0.0
05/04/2022,05:43:33,0.002,0.0,0.0,0.0
05/04/2022,05:44:33,0.002,0.0,0.0,0.0
05/04/2022,05:45:42,0.002,0.0,0.0,0.0
05/04/2022,05:46:33,0.002,0.0,0.0,0.0
05/04/2022,05:47:33,0.002,0.0,0.0,0.0
05/04/2022,05:48:33,0.002,0.0,0.0,0.0
05/04/2022,05:49:33,0.003,0.0,0.0,0.0
05/04/2022,05:50:42,0.003,0.0,0.0,0.0
05/04/2022,05:51:33,0.003,0.0,0.0,0.0
05/04/2022,05:52:33,0.003,0.0,0.0,0.0
05/04/2022,05:53:33,0.004,0.0,0.0,0.0
05/04/2022,05:54:33,0.003,0.0,0.0,0.0
05/04/2022,05:55:34,0.004,0.0,0.0,0.0
05/04/2022,05:56:33,0.005,0.0,0.0,0.0
05/04/2022,05:57:34,0.005,0.0,0.0,0.0
05/04/2022,05:58:33,0.005,0.0,0.0,0.0
05/04/2022,05:59:50,0.006,0.0,0.0,0.0
05/04/2022,06:01:34,0.007,0.0,0.0,0.0
05/04/2022,06:02:34,0.008,0.0,0.0,0.0
05/04/2022,06:03:33,0.007,0.0,0.0,0.0
05/04/2022,06:04:42,0.007,0.0,0.001,0.001
05/04/2022,06:05:33,0.006,0.0,0.001,0.0
05/04/2022,06:06:33,0.008,0.0,0.001,0.0
05/04/2022,06:07:33,0.008,0.0,0.001,0.0
05/04/2022,06:08:33,0.010,0.0,0.001,0.0
05/04/2022,06:09:36,0.010,0.0,0.001,0.0
05/04/2022,06:11:34,0.010,0.0,0.002,0.001
05/04/2022,06:12:33,0.010,0.0,0.002,0.0
05/04/2022,06:13:33,0.010,0.0,0.002,0.0
05/04/2022,06:14:33,0.011,0.0,0.002,0.0
05/04/2022,06:15:33,0.012,0.0,0.002,0.0
05/04/2022,06:16:33,0.013,0.0,0.002,0.0
05/04/2022,06:17:33,0.013,0.0,0.003,0.001
05/04/2022,06:18:33,0.014,0.0,0.003,0.0
05/04/2022,06:19:42,0.013,0.0,0.003,0.0
05/04/2022,06:21:33,0.012,0.0,0.004,0.001
05/04/2022,06:22:33,0.012,0.0,0.004,0.0
05/04/2022,06:23:34,0.013,0.0,0.004,0.0
05/04/2022,06:24:33,0.015,0.0,0.004,0.0
05/04/2022,06:25:33,0.015,0.0,0.004,0.0
05/04/2022,06:26:33,0.016,0.0,0.005,0.001
05/04/2022,06:27:33,0.017,0.0,0.005,0.0
05/04/2022,06:28:33,0.016,0.0,0.005,0.0
05/04/2022,06:29:33,0.016,0.0,0.006,0.001
05/04/2022,06:30:34,0.016,0.0,0.006,0.0
05/04/2022,06:31:33,0.017,0.0,0.006,0.0
05/04/2022,06:32:41,0.018,0.0,0.006,0.0
05/04/2022,06:33:33,0.018,0.0,0.007,0.001
05/04/2022,06:34:34,0.018,0.0,0.007,0.0
05/04/2022,06:35:33,0.018,0.0,0.007,0.0
05/04/2022,06:36:33,0.017,0.0,0.008,0.001
05/04/2022,06:37:34,0.019,0.0,0.008,0.0
05/04/2022,06:38:33,0.018,0.0,0.008,0.0
05/04/2022,06:39:34,0.020,0.0,0.009,0.001
05/04/2022,06:40:34,0.021,0.0,0.009,0.0
05/04/2022,06:41:33,0.022,0.0,0.009,0.0
05/04/2022,06:42:33,0.023,0.0,0.01,0.001
05/04/2022,06:43:34,0.023,0.0,0.01,0.0
05/04/2022,06:44:34,0.024,0.0,0.01,0.0
05/04/2022,06:45:34,0.025,0.0,0.011,0.001
05/04/2022,06:46:33,0.025,0.0,0.011,0.0
05/04/2022,06:47:43,0.026,0.0,0.012,0.001
05/04/2022,06:49:34,0.028,0.0,0.013,0.001
05/04/2022,06:50:41,0.028,0.0,0.013,0.0
05/04/2022,06:51:33,0.029,0.0,0.013,0.0
05/04/2022,06:52:34,0.031,0.0,0.014,0.001
05/04/2022,06:53:41,0.033,0.0,0.015,0.001
05/04/2022,06:54:33,0.035,0.0,0.015,0.0
05/04/2022,06:55:33,0.036,0.0,0.016,0.001
05/04/2022,06:56:34,0.037,0.0,0.016,0.0
05/04/2022,06:57:34,0.039,0.0,0.017,0.001
05/04/2022,06:58:33,0.039,0.0,0.018,0.001
05/04/2022,06:59:34,0.040,0.0,0.018,0.0
05/04/2022,07:00:34,0.040,0.0,0.019,0.001
05/04/2022,07:01:42,0.040,0.0,0.02,0.001
05/04/2022,07:02:33,0.042,0.0,0.02,0.0
05/04/2022,07:03:34,0.043,0.0,0.021,0.001
05/04/2022,07:04:34,0.043,0.0,0.022,0.001
05/04/2022,07:05:33,0.041,0.0,0.022,0.0
05/04/2022,07:06:34,0.040,0.0,0.023,0.001
05/04/2022,07:07:33,0.040,0.0,0.024,0.001
05/04/2022,07:08:34,0.037,0.0,0.024,0.0
05/04/2022,07:09:33,0.036,0.0,0.025,0.001
05/04/2022,07:10:33,0.037,0.0,0.026,0.001
05/04/2022,07:11:41,0.040,0.0,0.026,0.0
05/04/2022,07:13:33,0.040,0.0,0.028,0.002
05/04/2022,07:14:33,0.040,0.0,0.028,0.0
05/04/2022,07:15:33,0.040,0.0,0.029,0.001
05/04/2022,07:16:33,0.039,0.0,0.03,0.001
05/04/2022,07:17:34,0.039,0.0,0.03,0.0
05/04/2022,07:18:33,0.040,0.0,0.031,0.001
05/04/2022,07:19:42,0.042,0.0,0.032,0.001
05/04/2022,07:20:33,0.041,0.0,0.032,0.0
05/04/2022,07:21:33,0.042,0.0,0.033,0.001
05/04/2022,07:22:34,0.043,0.0,0.034,0.001
05/04/2022,07:23:33,0.046,0.0,0.034,0.0
05/04/2022,07:24:33,0.049,0.0,0.035,0.001
05/04/2022,07:25:34,0.054,0.0,0.036,0.001
05/04/2022,07:26:33,0.054,0.0,0.037,0.001
05/04/2022,07:27:33,0.057,0.0,0.038,0.001
05/04/2022,07:28:34,0.056,0.0,0.039,0.001
05/04/2022,07:29:42,0.057,0.0,0.04,0.001
05/04/2022,07:30:33,0.057,0.0,0.041,0.001
05/04/2022,07:31:33,0.060,0.0,0.042,0.001
05/04/2022,07:32:42,0.065,0.0,0.043,0.001
05/04/2022,07:33:41,0.061,0.0,0.044,0.001
05/04/2022,07:34:33,0.057,0.0,0.045,0.001
05/04/2022,07:35:33,0.059,0.0,0.046,0.001
05/04/2022,07:36:33,0.065,0.0,0.047,0.001
05/04/2022,07:37:33,0.074,0.0,0.048,0.001
05/04/2022,07:38:33,0.080,0.0,0.049,0.001
05/04/2022,07:39:33,0.086,0.0,0.051,0.002
05/04/2022,07:40:33,0.094,0.0,0.052,0.001
05/04/2022,07:41:34,0.097,0.0,0.054,0.002
05/04/2022,07:42:31,0.103,0.0,0.055,0.001
05/04/2022,07:43:42,0.110,0.0,0.057,0.002
05/04/2022,07:45:34,0.145,0.0,0.061,0.004
05/04/2022,07:46:34,0.154,0.0,0.064,0.003
05/04/2022,07:47:33,0.156,0.0,0.066,0.002
05/04/2022,07:48:33,0.153,0.0,0.069,0.003
05/04/2022,07:49:34,0.145,0.0,0.071,0.002
05/04/2022,07:50:33,0.146,0.0,0.074,0.003
05/04/2022,07:51:33,0.151,0.0,0.076,0.002
05/04/2022,07:52:34,0.156,0.0,0.079,0.003
05/04/2022,07:53:33,0.162,0.0,0.081,0.002
05/04/2022,07:54:33,0.170,0.0,0.084,0.003
05/04/2022,07:55:34,0.180,0.0,0.087,0.003
05/04/2022,07:56:33,0.189,0.0,0.09,0.003
05/04/2022,07:57:34,0.199,0.0,0.094,0.004
05/04/2022,07:58:33,0.214,0.0,0.097,0.003
05/04/2022,07:59:33,0.227,1.0,0.101,0.004
05/04/2022,08:00:35,0.235,1.0,0.105,0.004
05/04/2022,08:01:34,0.225,1.0,0.109,0.004
05/04/2022,08:02:34,0.226,1.0,0.112,0.003
05/04/2022,08:03:33,0.240,1.0,0.116,0.004
05/04/2022,08:04:42,0.246,1.0,0.121,0.005
05/04/2022,08:06:34,0.253,1.0,0.129,0.008
05/04/2022,08:07:34,0.254,1.0,0.133,0.004
05/04/2022,08:08:34,0.256,1.0,0.137,0.004
05/04/2022,08:09:33,0.256,1.0,0.141,0.004
05/04/2022,08:10:33,0.253,1.0,0.146,0.005
05/04/2022,08:11:34,0.256,1.0,0.15,0.004
05/04/2022,08:12:33,0.262,1.0,0.154,0.004
05/04/2022,08:13:34,0.245,1.0,0.158,0.004
05/04/2022,08:14:33,0.255,1.0,0.163,0.005
05/04/2022,08:15:42,0.254,1.0,0.167,0.004
05/04/2022,08:17:34,0.264,1.0,0.175,0.008
05/04/2022,08:18:34,0.249,1.0,0.18,0.005
05/04/2022,08:19:42,0.272,1.0,0.185,0.005
05/04/2022,08:20:33,0.263,1.0,0.188,0.003
05/04/2022,08:21:34,0.275,1.0,0.193,0.005
05/04/2022,08:22:33,0.270,1.0,0.197,0.004
05/04/2022,08:23:34,0.274,1.0,0.202,0.005
05/04/2022,08:24:33,0.286,1.0,0.207,0.005
05/04/2022,08:25:34,0.263,1.0,0.211,0.004
05/04/2022,08:26:34,0.264,1.0,0.216,0.005
05/04/2022,08:27:25,0.268,1.0,0.219,0.003
05/04/2022,08:28:34,0.270,1.0,0.224,0.005
05/04/2022,08:29:33,0.272,1.0,0.229,0.005
05/04/2022,08:30:34,0.257,1.0,0.233,0.004
05/04/2022,08:31:34,0.246,1.0,0.238,0.005
05/04/2022,08:32:34,0.236,1.0,0.242,0.004
05/04/2022,08:33:33,0.238,1.0,0.246,0.004
05/04/2022,08:34:34,0.244,1.0,0.25,0.004
05/04/2022,08:35:33,0.248,1.0,0.254,0.004
05/04/2022,08:36:33,0.253,1.0,0.258,0.004
05/04/2022,08:37:34,0.245,1.0,0.262,0.004
05/04/2022,08:38:34,0.233,1.0,0.266,0.004
05/04/2022,08:39:41,0.223,1.0,0.27,0.004
05/04/2022,08:40:33,0.219,1.0,0.273,0.003
05/04/2022,08:41:34,0.238,1.0,0.277,0.004
05/04/2022,08:42:33,0.264,1.0,0.282,0.005
05/04/2022,08:43:34,0.277,1.0,0.286,0.004
05/04/2022,08:44:33,0.287,1.0,0.291,0.005
05/04/2022,08:45:33,0.298,1.0,0.296,0.005
05/04/2022,08:46:33,0.288,1.0,0.301,0.005
05/04/2022,08:47:34,0.260,1.0,0.305,0.004
05/04/2022,08:48:33,0.250,1.0,0.309,0.004
05/04/2022,08:49:33,0.259,1.0,0.314,0.005
05/04/2022,08:50:34,0.275,1.0,0.318,0.004
05/04/2022,08:51:34,0.295,1.0,0.323,0.005
05/04/2022,08:52:34,0.302,1.0,0.328,0.005
05/04/2022,08:53:42,0.303,1.0,0.333,0.005
05/04/2022,08:54:33,0.309,1.0,0.338,0.005
05/04/2022,08:55:34,0.314,1.0,0.343,0.005
05/04/2022,08:56:33,0.309,1.0,0.348,0.005
05/04/2022,08:57:33,0.294,1.0,0.353,0.005
05/04/2022,08:58:34,0.291,1.0,0.358,0.005
05/04/2022,08:59:34,0.297,1.0,0.363,0.005
05/04/2022,09:00:34,0.317,1.0,0.368,0.005
05/04/2022,09:01:33,0.347,1.0,0.374,0.006
05/04/2022,09:02:33,0.356,1.0,0.38,0.006
05/04/2022,09:03:42,0.336,1.0,0.386,0.006
05/04/2022,09:04:33,0.316,1.0,0.391,0.005
05/04/2022,09:05:33,0.294,1.0,0.396,0.005
05/04/2022,09:06:34,0.300,1.0,0.401,0.005
05/04/2022,09:07:34,0.330,1.0,0.406,0.005
05/04/2022,09:08:34,0.350,1.0,0.412,0.006
05/04/2022,09:09:33,0.340,1.0,0.418,0.006
05/04/2022,09:10:34,0.327,1.0,0.423,0.005
05/04/2022,09:11:34,0.322,1.0,0.429,0.006
05/04/2022,09:12:33,0.358,1.0,0.434,0.005
05/04/2022,09:13:33,0.388,1.0,0.441,0.007
05/04/2022,09:14:34,0.399,1.0,0.447,0.006
05/04/2022,09:15:34,0.399,1.0,0.454,0.007
05/04/2022,09:16:34,0.354,1.0,0.46,0.006
05/04/2022,09:17:34,0.334,1.0,0.466,0.006
05/04/2022,09:18:33,0.335,1.0,0.471,0.005
05/04/2022,09:19:34,0.360,1.0,0.477,0.006
05/04/2022,09:20:34,0.395,1.0,0.483,0.006
05/04/2022,09:21:34,0.411,1.0,0.49,0.007
05/04/2022,09:22:34,0.397,1.0,0.497,0.007
05/04/2022,09:23:34,0.409,1.0,0.504,0.007
05/04/2022,09:24:33,0.415,1.0,0.511,0.007
05/04/2022,09:25:33,0.437,1.0,0.518,0.007
05/04/2022,09:26:33,0.482,1.0,0.525,0.007
05/04/2022,09:27:34,0.537,1.0,0.534,0.009
05/04/2022,09:28:33,0.509,1.0,0.542,0.008
05/04/2022,09:29:34,0.521,1.0,0.551,0.009
05/04/2022,09:30:34,0.590,1.0,0.56,0.009
05/04/2022,09:31:33,0.594,1.0,0.569,0.009
05/04/2022,09:32:34,0.557,1.0,0.578,0.009
05/04/2022,09:33:33,0.620,1.0,0.588,0.01
05/04/2022,09:34:33,0.627,1.0,0.599,0.011
05/04/2022,09:35:33,0.585,1.0,0.609,0.01
05/04/2022,09:36:33,0.589,1.0,0.619,0.01
05/04/2022,09:37:34,0.602,1.0,0.629,0.01
05/04/2022,09:38:42,0.548,1.0,0.64,0.011
05/04/2022,09:39:33,0.538,1.0,0.647,0.007
05/04/2022,09:40:33,0.560,1.0,0.656,0.009
05/04/2022,09:41:34,0.543,1.0,0.666,0.01
05/04/2022,09:42:33,0.567,1.0,0.675,0.009
05/04/2022,09:43:34,0.624,1.0,0.685,0.01
05/04/2022,09:44:33,0.641,1.0,0.695,0.01
05/04/2022,09:45:34,0.650,1.0,0.706,0.011
05/04/2022,09:46:35,0.658,2.0,0.717,0.011
05/04/2022,09:47:33,0.670,2.0,0.728,0.011
05/04/2022,09:48:42,0.668,2.0,0.741,0.013
05/04/2022,09:50:34,0.659,2.0,0.762,0.021
05/04/2022,09:51:34,0.668,2.0,0.773,0.011
05/04/2022,09:52:33,0.673,2.0,0.784,0.011
05/04/2022,09:53:33,0.677,2.0,0.795,0.011
05/04/2022,09:54:33,0.633,1.0,0.806,0.011
05/04/2022,09:55:34,0.647,1.0,0.817,0.011
05/04/2022,09:56:34,0.582,1.0,0.827,0.01
05/04/2022,09:57:33,0.648,1.0,0.838,0.011
05/04/2022,09:58:34,0.500,1.0,0.847,0.009
05/04/2022,09:59:34,0.523,1.0,0.856,0.009
05/04/2022,10:00:34,0.521,1.0,0.865,0.009
05/04/2022,10:01:34,0.515,1.0,0.873,0.008
05/04/2022,10:02:42,0.530,1.0,0.883,0.01
05/04/2022,10:03:33,0.523,1.0,0.891,0.008
05/04/2022,10:04:33,0.534,1.0,0.9,0.009
05/04/2022,10:05:34,0.542,1.0,0.909,0.009
05/04/2022,10:06:33,0.519,1.0,0.918,0.009
05/04/2022,10:07:34,0.504,1.0,0.926,0.008
05/04/2022,10:08:34,0.503,1.0,0.934,0.008
05/04/2022,10:09:33,0.515,1.0,0.943,0.009
05/04/2022,10:10:34,0.539,1.0,0.952,0.009
05/04/2022,10:11:33,0.571,1.0,0.961,0.009
05/04/2022,10:12:42,0.604,1.0,0.972,0.011
05/04/2022,10:14:34,0.640,1.0,0.991,0.019
05/04/2022,10:15:34,0.671,2.0,1.002,0.011
05/04/2022,10:16:33,0.717,2.0,1.014,0.012
05/04/2022,10:17:34,0.707,2.0,1.026,0.012
05/04/2022,10:18:33,0.734,2.0,1.039,0.013
05/04/2022,10:19:33,0.651,1.0,1.05,0.011
05/04/2022,10:20:33,0.652,2.0,1.061,0.011
05/04/2022,10:21:34,0.651,1.0,1.072,0.011
05/04/2022,10:22:34,0.693,2.0,1.084,0.012
05/04/2022,10:23:34,0.726,2.0,1.096,0.012
05/04/2022,10:24:34,0.880,2.0,1.11,0.014
05/04/2022,10:25:33,0.939,2.0,1.125,0.015
05/04/2022,10:26:34,0.891,2.0,1.14,0.015
05/04/2022,10:27:33,0.918,2.0,1.156,0.016
05/04/2022,10:28:34,0.933,2.0,1.171,0.015
05/04/2022,10:29:33,0.941,2.0,1.187,0.016
05/04/2022,10:30:33,0.961,2.0,1.203,0.016
05/04/2022,10:31:34,1.009,2.0,1.219,0.016